Regional Weather Roundup
Issued by NWS

Home | Current Version | Previous Version | Text Only | Print | Product List | Glossary On
Versions: 1 2 3 4 5 6 7 8 9 10 11 12 13 14 15 16 17 18 19 20 21 22 23 24 25 26 27 28 29 30 31 32 33 34 35 36 37 38 39 40 41 42 43 44 45 46 47 48 49 50
000
ASUS43 KMPX 290810
RWRMN
WEATHER ROUNDUP FOR MINNESOTA
NATIONAL WEATHER SERVICE TWIN CITIES/CHANHASSEN MN
300 AM CDT SAT AUG 29 2015


NOTE: "FAIR" INDICATES FEW OR NO CLOUDS BELOW 12,000 FEET WITH NO
SIGNIFICANT WEATHER AND/OR OBSTRUCTIONS TO VISIBILITY. N/A MEANS
CURRENT SKY AND/OR WEATHER CONDITIONS ARE NOT AVAILABLE.

MNZ060>063-068>070-290900-
   Twin Cities Metro

CITY           SKY/WX    TMP DP  RH WIND       PRES   REMARKS
TWIN CITIES    CLEAR     58  55  90 E5        30.03S
ST PAUL        CLEAR     58  55  90 NE3       30.03S
CRYSTAL        CLEAR     57  54  89 CALM      30.02R
BLAINE         CLEAR     55  55 100 CALM      30.04R
LAKEVILLE      FOG       50  50 100 CALM      30.02S VSB 1/2
EDEN PRAIRIE   CLEAR     58  55  90 E5        30.02R
SOUTH ST PAUL  CLEAR     57  55  91 CALM      30.03R
LAKE ELMO      FAIR      54  54 100 NE3       30.04R
$$
MNZ001>005-007-008-013>017-022>024-027-028-290900-
   Northwest Minnesota

CITY           SKY/WX    TMP DP  RH WIND       PRES   REMARKS
BEMIDJI        PTCLDY    64  61  91 S7        29.97S
HALLOCK        CLEAR     63  63 100 SE7       29.88R FOG
ROSEAU         CLEAR     64  61  88 SE6       29.91S
WARROAD        CLEAR     66  63  88 CALM      29.92R
THIEF RVR FALL CLEAR    N/A N/A N/A S7        29.91R
CROOKSTON      CLEAR     66  64  94 S10       29.91R
FOSSTON        CLEAR     63  59  88 S12       29.94F
DETROIT LAKES  CLEAR     64  61  88 S8        29.98S
MOORHEAD       CLEAR     64  61  88 S12       29.94S
PARK RAPIDS    PTCLDY    63  60  90 S7        29.99R
MAHNOMEN       FAIR      63  60  91 S8        29.95S
$$
MNZ006-009>011-018-025>026-290900-
   North Central Minnesota

CITY           SKY/WX    TMP DP  RH WIND       PRES   REMARKS
BAUDETTE       PTCLDY    64  63  96 S5        29.91S
FLAG ISLAND    CLEAR     66  64  94 CALM      29.90R FOG
INTL FALLS     CLOUDY    67  64  90 SE5       29.93F
WASKISH        PTCLDY    66  64  94 CALM      29.94S
BIG FORK       CLOUDY    66  63  88 SW7       29.96F
LONGVILLE      MOCLDY    63  61  94 S6        29.99S
GRAND RAPIDS     N/A     63  57  82 S5        29.99F
CRANE LAKE     CLOUDY    59  57  94 S5        29.96F
ORR            CLOUDY    64  57  77 CALM      29.94F
COOK           CLOUDY    64  61  88 CALM      29.99F
WALKER         PTSUNNY   62  60  93 S7        29.98S
$$
MNZ012-019>021-037-290900-
   Northeast Minnesota

CITY           SKY/WX    TMP DP  RH WIND       PRES   REMARKS
DULUTH         MOCLDY    59  56  89 SW8       30.03S
ELY            LGT RAIN  57  55  94 S8        29.98F
HIBBING        CLOUDY    65  60  84 VRB6      29.99S
EVELETH        CLOUDY    63  61  94 NE16G22   30.04R THUNDER
DULUTH HARBOR  PTCLDY    63  57  82 S8        30.02F
TWO HARBORS    MOCLDY    63  57  82 CALM      30.03R
SILVER BAY     CLOUDY    64  61  88 CALM      30.05R
GRAND MARAIS     N/A     57  56  96 W9        29.98F
G MARAIS ARPRT TSTM      55  54  94 S9G18     30.00F
$$
MNZ029>031-032-039>041-046>048-054>057-064-290900-
   West Central Minnesota

CITY           SKY/WX    TMP DP  RH WIND       PRES   REMARKS
FERGUS FALLS   CLEAR     61  61 100 S8        29.98S
WHEATON        CLEAR     61  57  88 S10       29.98F
MORRIS         CLEAR     57  57 100 S7        29.99S
ALEXANDRIA     CLEAR     60  58  92 SW8       30.01S
ELBOW LAKE     FAIR      58  58  97 S8        29.99S
WADENA         CLEAR     61  57  88 S3        29.99R
GLENWOOD       CLEAR     55  55 100 SW7       30.01S
APPLETON       CLEAR     61  55  82 S6        29.99F
BENSON         CLEAR     55  52  88 CALM      30.01R
ORTONVILLE     CLEAR     59  55  88 S5        29.98F
MADISON        CLEAR     57  55  94 S3        30.00S
WILLMAR        FAIR      54  54 100 CALM      30.03S FOG
$$
MNZ033>034-036-042>043-049>051-058-059-290900-
   Central Minnesota

CITY           SKY/WX    TMP DP  RH WIND       PRES   REMARKS
ST CLOUD       CLEAR     55  54  96 CALM      30.02S
SAUK CENTRE    FAIR      55  55  98 S5        30.02R
PAYNESVILLE    CLEAR     57  55  94 SE6       30.03R
AITKIN         PTCLDY    63  55  77 CALM      30.00F
PINE RIVER     MOCLDY    61  61 100 CALM      30.03F
BRAINERD       PTCLDY    59  57  93 S3        30.02R
STAPLES        CLEAR     57  55  94 S5        30.00S
LONG PRAIRIE   CLOUDY    55  54  94 S5        30.02R
LITTLE FALLS   MOCLDY    55  54  94 SE3       30.01S
LITCHFIELD     CLEAR     57  57 100 CALM      30.03S
BUFFALO        CLEAR     55  52  92 CALM      30.04S
MAPLE LAKE     CLEAR     56  55  98 CALM      30.04R FOG
$$
MNZ037-044-045-052-053-290900-
   East Central Minnesota

CITY           SKY/WX    TMP DP  RH WIND       PRES   REMARKS
PRINCETON      CLEAR     55  54  94 CALM      30.03S FOG
MORA           CLEAR     54  52  94 CALM      30.05S FOG
CAMBRIDGE      CLEAR     57  52  82 CALM      30.02S
RUSH CITY      PTCLDY    54  52  95 CALM      30.04F
MOOSE LAKE     PTCLDY    55  54  94 CALM      30.01S
HINCKLEY       FAIR      55  55 100 CALM      30.04S
CLOQUET        PTCLDY    57  55  94 S6        30.02F
MCGREGOR       PTCLDY    59  57  94 S5        30.01F
$$
MNZ071>073-080-081-089-090-097-098-290900-
   Southwest Minnesota

CITY           SKY/WX    TMP DP  RH WIND       PRES   REMARKS
MONTEVIDEO     CLEAR     55  55 100 SW5       30.02S
GRANITE FALLS  CLEAR     52  52  99 CALM      30.03S
CANBY          FAIR      58  56  92 SW6       30.02S
MARSHALL       CLEAR     54  48  82 SW6       30.02S
REDWOOD FALLS  FOG       55  54  96 CALM      30.02R VSB 1/2
OLIVIA         CLEAR     52  50  93 CALM      30.02R
PIPESTONE      CLEAR     54  52  94 CALM      30.03S FOG
WINDOM         FOG       52  50  93 CALM      30.02F VSB 1/4
WORTHINGTON    MOCLDY    54  48  82 N3        30.02F VSB 1/2
JACKSON        CLOUDY    57  55  94 N5        30.02F
TRACY          CLEAR     55  54  96 SW3       30.03S
SLAYTON        FOG       49  49 100 CALM      30.04S VSB 1/2
$$
MNZ065>067-074>077-082>085-091>093-290900-
   South Central Minnesota

CITY           SKY/WX    TMP DP  RH WIND       PRES   REMARKS
MANKATO        CLOUDY    57  54  88 E6        30.01F
NEW ULM        CLEAR     55  55 100 E5        30.02R
ST JAMES       CLOUDY    59  57  94 CALM      30.03R
FAIRMONT       CLOUDY    57  52  82 NE7       30.01S
GLENCOE        CLEAR     53  53 100 CALM      30.02S
FARIBAULT      CLOUDY    57  55  94 CALM      30.02F
OWATONNA       CLOUDY    57  55  94 E5        30.01F FOG
WASECA         CLOUDY    55  55 100 MISG      30.03S FOG
ALBERT LEA     CLOUDY    59  57  94 NE8       30.00S FOG
$$
MNZ078>079-086>088-094>096-290900-
   Southeast Minnesota

CITY           SKY/WX    TMP DP  RH WIND       PRES   REMARKS
ROCHESTER      CLOUDY    58  57  97 NE8       30.01F
RED WING       CLEAR     55  54  94 E3        30.01F
STANTON        FOG       53  51  94 CALM      30.00F VSB 1/4
DODGE CENTER   CLOUDY    55  55 100 NE3       30.02S FOG
WINONA         CLOUDY    59  55  88 NE3       30.01F
AUSTIN         CLOUDY    61  57  88 NE6       30.00S FOG
PRESTON        CLOUDY    57  56  96 NE6       30.01S FOG
$$
ABBREVIATIONS USED IN REMARKS
   TC - TEMPERATURES IN CELSIUS
  WCI - WIND CHILL INDEX
   HX - HEAT INDEX
  VSB - VISIBILITY
$$



USA.gov is the U.S. government's official web portal to all federal, state and local government web resources and services.